Wind_Gust
12 9 12 7 6 7 10 9 8 9 9 11 11 11 15 12 12 13 13 15 14 14 15 14 14 15 16 16 16 16 16 15 15 15 16 17 15 16 18 18 17 19
10 8 8 9 7 7 6 6 7 9 9 8 10 15 13 12 12 13 13 14 15 16 15 15 15 15 16 16 16 15 16 16 16 16 15 17 16 16 16 16 17 18
10 9 10 9 9 7 7 7 8 8 8 11 11 11 12 12 13 13 14 13 14 15 15 15 15 15 16 16 15 15 16 16 16 15 14 16 16 16 17 16 17 17
11 11 11 10 9 10 8 8 7 8 11 13 12 13 12 13 13 14 13 13 14 14 14 15 15 15 16 16 15 15 15 16 16 15 15 14 16 17 17 17 17 18
12 12 12 10 9 10 9 9 8 11 13 13 13 13 13 13 13 14 13 13 13 14 14 14 14 15 14 15 16 15 15 15 15 15 15 15 16 16 16 18 19 19
14 13 12 11 10 10 9 9 12 13 14 13 13 13 14 13 14 14 13 13 13 14 14 14 15 15 15 16 15 15 15 15 15 15 17 17 17 18 18 19 20 20
13 12 12 10 10 10 8 10 12 13 14 14 15 14 14 14 14 14 14 13 14 14 14 14 15 15 15 14 14 15 15 15 16 18 18 17 17 18 19 18 20 20
11 10 11 11 11 11 12 14 14 15 15 15 15 15 14 15 15 14 14 13 14 14 14 15 15 16 15 15 15 14 14 15 17 18 17 18 17 19 20 19 19 20
11 12 12 11 12 12 14 15 16 16 16 17 16 16 14 14 14 14 14 13 14 14 15 15 15 15 15 15 15 16 16 15 16 16 17 18 19 19 20 19 19 19
13 12 12 13 13 14 15 16 17 17 17 18 17 15 17 15 14 14 13 13 14 15 15 15 15 15 15 15 16 16 16 17 16 16 17 17 18 19 19 19 20 19
12 13 13 14 14 16 16 17 17 18 17 18 17 17 16 16 15 13 12 13 13 15 15 16 15 15 15 15 14 14 15 15 16 16 16 16 16 17 14 18 18 18
14 14 15 16 17 18 18 17 18 18 18 17 18 18 15 14 14 12 12 15 16 15 15 15 15 14 15 15 15 15 14 14 15 14 15 16 16 16 17 17 17 18
16 16 17 18 18 18 18 18 19 18 18 19 18 17 16 15 14 13 13 15 16 15 15 15 15 16 15 15 15 15 15 15 14 15 14 14 15 16 16 16 17 17
17 17 18 19 19 19 19 19 19 19 19 18 17 17 16 15 14 14 14 15 15 15 15 15 16 16 17 17 16 15 14 14 14 14 14 14 14 15 15 16 16 17
18 17 18 20 20 20 20 20 20 19 19 18 17 16 15 15 14 15 15 15 15 14 15 15 16 16 17 18 17 17 17 15 14 15 15 15 15 15 15 16 17 17
20 18 20 20 21 21 21 21 21 20 19 18 17 16 15 14 14 14 14 14 15 15 15 14 15 16 15 15 15 18 18 17 15 14 15 15 16 16 16 16 16 17
20 21 21 21 21 21 20 21 21 20 19 18 17 16 15 14 14 14 14 14 15 14 14 14 15 16 12 10 13 16 19 16 16 15 14 15 16 16 17 17 17 18
21 22 22 22 22 22 21 21 21 20 19 18 17 15 14 14 14 14 14 13 13 14 13 14 15 11 8 10 12 14 15 19 17 15 13 14 15 16 16 17 17 18
22 22 22 22 22 22 21 21 21 20 19 18 16 15 14 14 14 14 13 13 13 13 13 14 15 11 7 10 11 12 14 18 17 14 13 13 14 15 15 16 17 18
22 23 23 22 22 22 21 21 20 19 17 16 16 15 15 15 14 13 13 12 12 12 13 14 14 11 8 10 10 12 13 14 16 16 13 12 13 14 14 15 16 18
23 23 24 23 23 22 21 20 20 19 18 17 16 15 15 15 14 13 13 12 11 12 13 13 15 9 7 10 11 13 13 16 18 17 15 12 12 12 13 13 15 18
24 24 24 23 23 22 21 21 19 18 17 16 15 15 14 14 14 13 13 12 11 12 12 13 15 8 7 9 12 13 18 20 17 15 14 12 12 12 14 13 14 17
24 25 24 24 23 22 21 20 19 18 16 16 16 15 15 14 14 13 13 12 12 11 12 13 14 10 6 9 12 14 16 16 15 16 12 12 12 12 13 12 12 15
24 25 25 24 23 22 21 20 19 17 16 16 16 16 15 14 14 14 13 12 11 11 11 12 13 13 8 9 12 14 18 19 17 15 12 13 13 11 12 12 14 13
24 24 24 23 23 22 21 20 19 18 17 16 15 15 15 15 14 14 14 13 12 12 9 13 15 14 9 8 12 14 19 19 17 15 15 15 15 14 12 13 15 15
23 23 22 22 22 22 20 19 18 18 17 16 15 16 16 15 14 14 13 13 13 13 12 11 14 13 14 6 9 12 15 23 16 16 17 16 15 16 16 15 15 16
Wind_Speed
2 2 4 1 2 3 2 2 2 1 3 3 3 2 4 3 4 4 4 4 5 5 4 5 4 4 4 4 4 4 4 5 4 3 3 4 4 5 6 7 5 3
3 2 3 3 1 2 2 2 2 2 3 3 2 4 4 4 5 5 4 5 5 6 5 4 4 4 4 3 4 4 3 4 4 4 4 4 3 3 4 5 5 3
2 1 1 2 1 1 0 2 1 2 2 4 4 4 4 4 4 4 3 4 4 5 4 4 4 4 5 5 4 4 3 3 3 3 3 3 3 3 3 3 4 4
4 2 2 2 2 2 2 2 2 2 3 3 4 4 4 4 4 4 3 4 4 4 3 4 3 3 4 5 4 4 3 3 3 3 3 3 3 3 3 3 4 4
4 4 3 3 4 4 3 2 2 3 4 5 4 4 4 3 4 4 3 3 3 4 3 4 3 3 3 3 3 3 3 3 3 3 3 3 3 3 3 3 5 4
5 5 4 4 3 3 3 3 2 6 6 4 4 3 3 4 4 3 3 3 3 3 5 3 4 3 3 3 2 2 3 4 3 4 4 3 3 4 3 4 5 5
7 6 5 4 3 4 3 1 5 6 6 5 4 4 3 3 3 4 4 4 4 4 4 3 3 3 2 2 2 2 2 2 3 4 5 3 3 4 4 4 5 5
5 4 4 3 4 5 3 7 6 6 6 5 5 4 4 4 5 3 4 4 4 4 3 4 3 3 2 2 3 3 3 3 2 4 3 3 3 4 5 5 4 5
4 4 4 5 1 3 6 7 7 6 6 6 5 4 4 4 4 4 4 4 4 3 3 3 3 2 2 2 2 3 3 3 3 3 3 3 4 4 5 4 5 4
4 4 5 5 6 4 7 7 7 6 6 6 6 4 5 3 3 5 4 3 3 4 3 2 2 2 2 2 3 2 2 3 3 3 3 3 4 5 5 5 5 4
5 3 0 4 5 7 7 7 6 6 5 7 5 5 5 3 3 4 4 3 3 4 4 2 2 2 2 2 2 2 2 2 3 3 3 4 3 4 5 4 4 4
4 4 5 4 9 7 7 7 6 6 6 5 7 6 4 3 2 3 3 5 5 5 4 5 4 4 5 5 4 2 2 2 2 3 3 3 4 4 4 4 4 4
7 6 6 8 8 8 6 6 6 6 7 8 7 5 5 3 4 3 3 5 5 5 5 5 5 5 5 6 7 6 5 3 3 3 3 3 3 4 5 4 4 5
6 6 6 7 8 8 7 6 6 6 6 6 5 5 5 5 5 5 3 5 5 6 5 4 5 6 6 6 6 6 6 6 3 3 3 3 3 4 4 4 4 5
5 8 7 8 9 8 7 6 6 6 6 5 4 4 4 5 4 5 5 6 6 5 6 5 5 5 5 5 5 6 6 6 6 4 3 3 3 4 4 4 4 5
10 8 8 8 7 8 7 7 7 7 6 6 5 5 4 4 4 4 5 5 6 6 5 4 4 3 6 9 7 5 5 5 6 5 3 3 3 3 4 3 4 5
10 10 9 9 8 7 7 8 8 7 6 6 5 5 4 4 3 4 4 5 6 6 5 4 4 3 7 6 6 9 6 4 5 6 4 3 3 3 3 4 4 5
9 8 9 9 9 9 9 8 8 7 7 6 6 5 4 3 3 4 4 5 5 6 5 4 3 4 4 5 6 7 7 5 4 5 4 2 2 3 3 3 3 3
7 9 10 10 10 10 8 8 8 8 7 7 7 5 4 4 4 4 4 4 5 6 5 4 3 3 3 5 6 6 7 7 4 5 5 3 2 2 2 2 3 2
10 11 11 10 10 9 9 9 8 8 7 6 6 5 5 4 4 4 4 4 5 5 5 4 3 3 2 4 5 7 7 6 4 5 5 5 3 2 2 2 3 2
11 11 11 11 10 10 9 9 8 7 7 6 6 5 5 5 4 4 4 4 5 5 5 4 2 3 1 3 4 6 8 6 4 5 6 6 3 2 1 2 3 1
11 11 11 11 11 10 9 9 8 8 7 6 5 5 5 4 4 4 4 4 4 6 5 4 3 2 0 1 4 6 8 5 4 6 7 5 2 2 2 2 2 1
12 12 12 12 11 11 10 9 9 8 7 6 6 6 6 5 4 4 4 4 5 5 6 5 4 4 3 1 3 6 6 4 4 6 5 2 3 3 2 3 1 3
12 12 12 12 11 11 10 9 8 6 7 6 6 6 6 5 5 5 4 4 4 4 6 6 5 4 4 2 2 4 6 4 4 6 3 3 3 3 3 2 7 7
11 12 12 11 12 10 9 10 8 7 6 5 5 5 5 5 5 5 4 4 3 3 6 8 6 5 5 3 1 3 4 3 4 5 3 3 4 4 3 2 5 7
10 11 10 11 11 10 9 8 7 7 7 6 6 5 5 5 5 5 5 4 3 3 2 5 7 5 5 5 2 1 4 4 4 4 3 3 4 5 4 2 5 5
Wind_Direction
206 197 119 40 16 115 14 60 56 122 102 90 67 61 85 74 98 102 97 81 64 47 45 45 25 37 38 53 18 28 45 4 11 26 34 36 12 16 7 13 1 20
194 129 133 126 149 55 86 40 24 357 65 87 93 75 58 72 51 54 52 64 67 58 45 43 36 30 38 40 30 21 46 30 8 11 2 39 11 20 7 9 354 5
283 24 53 119 81 113 68 155 168 78 90 94 91 102 107 90 84 74 75 71 68 67 52 42 46 33 37 31 41 18 14 42 6 7 16 14 16 24 16 359 346 10
188 185 188 180 181 211 199 173 173 176 113 116 112 103 95 104 111 97 74 70 82 77 73 55 46 43 51 36 34 15 11 14 9 358 32 2 29 1 32 6 349 17
186 188 202 187 184 197 185 197 210 123 103 92 97 106 119 122 116 110 114 108 88 82 63 68 43 31 51 69 40 20 5 9 357 3 36 13 10 353 35 19 357 16
184 190 203 221 185 174 170 195 170 109 115 116 99 96 94 90 83 86 90 77 69 87 86 60 62 37 19 40 64 60 13 4 2 13 22 23 355 5 29 25 13 7
189 181 196 229 169 158 180 163 87 110 110 113 109 100 105 100 95 89 73 82 90 68 73 84 63 53 40 13 21 38 59 7 23 14 13 23 353 11 23 32 23 5
170 182 175 224 202 151 156 107 111 110 115 115 118 123 118 111 108 101 91 70 64 85 84 69 66 60 29 34 14 19 25 26 34 16 14 14 1 13 19 30 16 6
179 176 179 201 193 124 120 118 118 121 121 121 121 116 105 100 93 80 79 97 104 91 77 78 83 77 65 37 29 21 14 28 19 23 9 17 10 8 19 19 13 8
176 167 186 218 162 127 119 119 122 126 133 128 127 115 110 112 119 118 113 109 101 88 80 76 61 99 91 74 45 8 25 19 14 12 10 18 11 6 16 14 4 1
181 160 110 244 120 118 124 126 128 129 127 125 122 123 118 112 106 110 114 105 104 102 98 82 76 36 42 54 79 34 33 26 17 11 357 18 12 360 14 5 2 4
159 143 202 183 119 127 130 131 130 125 128 132 132 128 134 128 114 109 113 117 97 80 66 60 41 27 21 11 11 36 39 20 26 16 355 18 2 358 12 3 354 6
164 181 208 140 127 128 128 134 137 141 141 134 131 125 118 113 107 92 70 85 84 78 76 59 50 35 27 12 1 360 0 3 22 16 2 13 4 357 5 357 358 6
175 175 113 122 127 129 140 141 141 137 120 120 130 132 133 130 118 111 106 93 88 85 74 67 60 49 31 16 3 356 352 339 357 19 2 9 2 1 2 353 4 2
147 100 135 128 135 138 137 142 129 117 126 128 129 122 109 113 125 131 125 120 116 102 89 75 64 51 38 19 359 353 345 341 342 355 7 4 355 7 354 354 9 0
117 129 146 132 133 140 141 129 128 134 132 135 129 119 120 118 115 118 120 123 111 99 93 86 78 70 41 32 19 359 342 346 338 331 349 351 2 3 351 358 15 6
141 156 147 148 143 142 137 141 142 139 143 136 126 119 114 122 131 138 132 113 109 104 97 87 77 62 42 20 10 8 4 347 336 322 319 348 9 354 356 357 4 7
171 163 146 137 148 149 152 146 141 147 138 127 120 124 133 133 132 119 107 108 105 108 100 97 91 61 33 17 8 10 12 349 315 307 318 334 356 338 358 356 347 1
151 133 143 149 154 156 148 146 151 142 136 136 139 134 131 140 129 129 128 122 127 123 121 115 112 62 24 15 6 4 4 353 311 312 318 307 311 326 349 344 328 340
146 151 153 155 154 148 148 153 151 142 140 135 129 140 145 135 142 144 136 139 133 126 117 118 102 83 34 8 5 358 352 337 297 296 294 289 285 313 321 317 303 292
158 154 155 156 151 149 155 154 147 140 141 135 148 149 143 148 152 147 149 138 136 128 124 113 100 111 49 3 359 354 337 311 279 274 272 273 266 268 268 295 276 268
157 155 155 150 151 155 156 152 143 149 145 145 146 143 142 149 149 144 143 156 147 132 130 124 130 169 217 12 354 349 326 294 267 261 252 247 301 309 282 271 268 205
158 157 153 155 156 158 156 149 151 149 148 149 148 154 153 154 152 151 164 157 157 156 145 136 142 179 202 42 356 349 328 313 304 298 290 335 338 309 291 275 303 61
157 156 156 158 159 160 152 149 150 148 148 156 158 154 155 153 156 162 160 160 171 174 157 143 139 161 178 103 355 351 320 302 301 293 311 356 333 312 301 43 85 90
155 157 159 159 160 152 147 152 154 151 149 155 152 155 153 157 172 157 163 157 178 155 150 140 137 157 181 147 89 357 348 312 305 298 346 353 329 308 307 103 110 87
153 157 158 159 153 142 149 151 149 145 151 158 157 165 157 171 172 162 166 157 136 135 183 157 147 155 160 168 105 18 7 324 295 320 357 337 329 314 301 348 123 139